Regional Weather Roundup
Issued by NWS

Home | Current Version | Previous Version | Graphics & Text | Print | Product List | Glossary On
Versions: 1 2 3 4 5 6 7 8 9 10 11 12 13 14 15 16 17 18 19 20 21 22 23 24 25 26 27 28 29 30 31 32 33 34 35 36 37 38 39 40 41 42 43 44 45 46 47 48 49 50
000
ASUS43 KBIS 132310
RWRND

NORTH DAKOTA REGIONAL WEATHER ROUNDUP
NATIONAL WEATHER SERVICE BISMARCK ND
600 PM CDT SUN JUL 13 2014

NOTE: "FAIR" INDICATES FEW OR NO CLOUDS BELOW 12,000 FEET WITH NO
SIGNIFICANT WEATHER AND/OR OBSTRUCTIONS TO VISIBILITY.


NDZ001>003-009>011-017-140000-
NORTHWEST NORTH DAKOTA

CITY           SKY/WX    TMP DP  RH WIND       PRES   REMARKS
WILLISTON      SUNNY     77  34  21 N18G29    30.11F
MINOT          MOSUNNY   70  43  37 NW25G31   30.03F
MINOT AFB      MOSUNNY   69  45  41 NW24      30.03S
$$

NDZ018>021-031>035-040>046-140000-
SOUTHWEST NORTH DAKOTA

CITY           SKY/WX    TMP DP  RH WIND       PRES   REMARKS
BISMARCK       SUNNY     75  41  29 NW17G32   30.05S
DICKINSON      SUNNY     74  38  27 NW21G26   30.10S
GARRISON         N/A     72  42  34 NW21G32   30.05F
HETTINGER ARPT SUNNY     76  40  27 N15       30.12S
$$

NDZ004>008-012>016-024-026-027-054-140000-
NORTHEAST NORTH DAKOTA

CITY           SKY/WX    TMP DP  RH WIND       PRES   REMARKS
GRAND FORKS    CLOUDY    66  49  54 NW14      29.92R
GRND FRKS AFB  MOSUNNY   66  47  49 N15       29.93S
DEVILS LAKE    CLOUDY    66  45  45 NW18G28   29.96R
$$

NDZ022-023-025-028>030-036>039-047>053-140000-
SOUTHEAST NORTH DAKOTA

CITY           SKY/WX    TMP DP  RH WIND       PRES   REMARKS
FARGO          CLOUDY    72  45  37 NW24      29.91R
JAMESTOWN      CLOUDY    70  44  39 NW21G33   29.97S
$$




USA.gov is the U.S. government's official web portal to all federal, state and local government web resources and services.